sat.trackr.live / text

‹ back to catalog

ONEWEB-0209

NORAD 48215 · 2021-031F

PAYLOAD ACTIVE UNKNOWN

§ Identity

Operator
Country
UK
Launch date
2021-04-25
Launch site
VOSTO
Launch vehicle
Mass (kg)
RCS (m²)

Purposes: comms

External: N2YO · Heavens-Above · Gunter

§ Orbital elements

Epoch: 2026-09-20T00:12:39.945024Z

Period
109.55 min
Inclination
87.8896°
Eccentricity
0.0001660
Mean motion
13.14501662 rev/d
Perigee alt
1,204.5 km
Apogee alt
1,207.1 km
Semi-major
7,583.9 km
B*
6.8152e-4
RAAN
270.7995°
Arg perigee
95.0664°
Mean anomaly
265.0655°
Rev number
26,083

§ Raw data

ONEWEB-02091 48215U 21031F   26263.00879566  .00000265  00000+0  68152-3 0  99942 48215  87.8896 270.7995 0001660  95.0664 265.0655 13.14501662260837

JSON: /api/v1/satellites/48215 · /tle

For live sub-satellite position, see the globe view (requires WebGL).

§ Visibility from observer

Set your observer location to see the next 7 days of passes ≥ 10°. The values pass through the URL so the page stays shareable.

No JS? Fill the form by hand. The geolocation button needs JavaScript.